TimePDT,TemperatureF,Dew PointF,Humidity,Sea Level PressureIn,VisibilityMPH,Wind Direction,Wind SpeedMPH,Gust SpeedMPH,PrecipitationIn,Events,Conditions,WindDirDegrees,DateUTC
12:54 AM,46.9,39.9,77,29.99,10.0,SW,3.5,-,N/A,,Clear,220,2013-05-05 07:54:00
1:54 AM,50.0,39.9,68,29.98,10.0,Calm,Calm,-,N/A,,Clear,0,2013-05-05 08:54:00
2:54 AM,44.1,39.0,82,29.97,10.0,Calm,Calm,-,N/A,,Clear,0,2013-05-05 09:54:00
3:54 AM,43.0,39.0,86,29.96,10.0,SSE,6.9,-,N/A,,Clear,160,2013-05-05 10:54:00
4:54 AM,42.8,39.2,87,29.95,10.0,Calm,Calm,-,N/A,,Clear,0,2013-05-05 11:54:00
5:54 AM,42.1,37.9,85,29.95,10.0,Calm,Calm,-,N/A,,Clear,0,2013-05-05 12:54:00
6:54 AM,46.0,42.1,86,29.94,10.0,Calm,Calm,-,N/A,,Clear,0,2013-05-05 13:54:00
7:54 AM,57.9,44.1,60,29.95,10.0,Calm,Calm,-,N/A,,Clear,0,2013-05-05 14:54:00
8:54 AM,61.0,44.1,54,29.94,10.0,Variable,3.5,-,N/A,,Clear,0,2013-05-05 15:54:00
9:54 AM,66.9,45.0,45,29.92,10.0,Variable,4.6,-,N/A,,Clear,0,2013-05-05 16:54:00
10:54 AM,71.6,44.6,38,29.91,10.0,Variable,4.6,-,N/A,,Clear,0,2013-05-05 17:54:00
11:54 AM,77.0,43.0,30,29.89,10.0,NNE,9.2,-,N/A,,Clear,30,2013-05-05 18:54:00
12:54 PM,80.1,39.0,23,29.86,10.0,NE,12.7,-,N/A,,Clear,50,2013-05-05 19:54:00
1:54 PM,82.0,36.0,19,29.84,10.0,NNE,12.7,-,N/A,,Clear,30,2013-05-05 20:54:00
2:54 PM,82.9,37.9,20,29.83,10.0,NE,11.5,19.6,N/A,,Clear,50,2013-05-05 21:54:00
3:54 PM,84.0,35.1,17,29.81,10.0,North,12.7,17.3,N/A,,Clear,10,2013-05-05 22:54:00
4:54 PM,84.2,35.6,18,29.79,10.0,NNE,12.7,-,N/A,,Clear,30,2013-05-05 23:54:00
5:54 PM,82.9,34.0,17,29.77,10.0,NNE,13.8,-,N/A,,Clear,30,2013-05-06 00:54:00
6:54 PM,82.0,36.0,19,29.76,10.0,NNE,10.4,-,N/A,,Clear,30,2013-05-06 01:54:00
7:54 PM,79.0,35.1,20,29.77,10.0,ENE,5.8,-,N/A,,Clear,60,2013-05-06 02:54:00
8:54 PM,69.1,39.9,35,29.78,10.0,East,5.8,-,N/A,,Clear,100,2013-05-06 03:54:00
9:54 PM,72.0,37.0,28,29.79,10.0,NE,5.8,-,N/A,,Clear,50,2013-05-06 04:54:00
10:54 PM,61.0,41.0,48,29.80,10.0,North,4.6,-,N/A,,Clear,350,2013-05-06 05:54:00
11:54 PM,55.0,43.0,64,29.82,10.0,Calm,Calm,-,N/A,,Clear,0,2013-05-06 06:54:00